CAPE
973 995 838 829 882 853 1013 708 305 404 346 11 2 0 0 0 0 0 0 0 0 0 0 0 0 2 3 3 3 2 2 2 0
1097 1304 1243 1127 1186 770 719 484 192 107 188 52 16 0 0 0 0 0 0 0 0 0 1 0 1 3 3 3 3 2 3 2 2
1012 929 1115 1429 1227 636 793 491 159 76 60 1 0 0 0 0 0 0 0 0 0 3 1 0 0 1 1 1 1 2 3 2 0
1030 1240 1096 1072 1314 734 964 599 403 79 113 208 65 0 0 0 0 0 0 0 0 3 0 0 0 0 0 0 0 0 0 0 0
976 929 781 1038 1152 1156 902 633 474 451 223 260 41 0 0 0 0 0 0 67 0 1 0 0 0 0 0 0 0 0 0 0 0
360 439 357 721 1067 1148 1005 718 410 221 64 104 0 0 0 0 0 0 46 0 0 1 0 0 0 0 0 0 0 0 0 0 0
180 408 406 591 777 819 867 559 278 87 0 9 1 0 0 0 0 0 133 56 0 4 0 0 0 0 0 0 0 0 0 0 0
24 89 388 340 524 539 442 231 71 39 0 0 0 0 0 0 0 0 96 82 9 41 4 0 0 0 0 0 0 0 0 0 0
139 130 409 362 488 486 419 255 147 51 4 0 0 0 0 0 0 0 0 115 35 75 96 9 1 1 1 0 0 0 0 0 0
121 93 170 494 527 448 451 347 229 131 32 9 9 2 0 0 0 0 0 2 108 70 144 178 75 3 3 3 2 0 0 0 0
201 218 262 312 350 558 515 403 343 165 91 34 33 34 8 0 0 0 0 0 4 78 52 160 335 204 100 89 72 4 2 3 2
213 245 242 275 295 451 380 437 403 212 73 39 25 35 40 0 0 0 0 0 0 0 3 0 90 321 466 349 244 380 418 383 327
89 240 243 263 250 255 268 351 318 345 190 93 66 18 30 22 19 0 0 0 0 0 13 69 110 146 214 462 496 682 457 469 484
82 199 189 162 115 101 87 151 217 125 142 84 70 40 35 18 14 5 0 0 0 0 0 0 5 70 237 131 327 550 693 625 532
94 67 64 55 29 25 46 61 77 122 144 135 125 86 52 20 0 0 3 16 0 0 0 0 0 0 61 176 152 361 939 864 650
149 155 82 46 34 17 83 80 133 180 200 173 100 86 88 81 10 0 0 0 3 0 0 0 0 0 0 43 171 332 455 960 939
303 293 212 137 130 167 138 84 137 152 170 169 142 53 19 58 48 30 16 9 0 1 0 1 0 0 0 2 35 150 318 340 885
360 292 226 228 173 296 244 183 154 95 106 198 146 86 12 8 8 26 19 5 4 0 13 13 7 0 0 0 5 15 116 325 544
444 229 532 376 256 214 217 216 183 116 120 181 179 85 56 44 12 0 0 0 3 6 3 0 0 0 0 1 7 25 46 188 278
395 270 416 334 248 179 152 200 169 175 120 135 102 149 115 102 43 1 0 0 0 0 1 6 13 10 0 4 24 62 83 184 248
CIN
-2 0 0 -1 -1 -3 -1 -10 -65 -55 -74 -13 0 0 0 0 0 0 0 0 0 0 0 0 0 0 0 0 0 0 0 0 0
-2 0 -1 -1 -1 -10 -13 -19 -79 -122 -99 -189 -18 0 0 0 0 0 0 0 0 0 0 0 0 0 0 0 0 0 0 0 0
-2 -4 -1 -1 -1 -10 -6 -19 -67 -114 -141 -7 0 0 0 0 0 0 0 0 0 0 0 0 0 0 0 0 0 0 0 0 0
-4 -1 -1 -2 -1 -8 -5 -13 -19 -71 -54 -50 -92 0 0 0 0 0 0 0 0 0 0 0 0 0 0 0 0 0 0 0 0
-6 -8 -14 -4 -1 -3 -6 -10 -16 -5 -17 -13 -38 0 0 0 0 0 0 -163 0 0 0 0 0 0 0 0 0 0 0 0 0
-40 -38 -47 -32 -7 -4 -5 -7 -14 -20 -55 -56 0 0 0 0 0 0 -65 0 0 0 0 0 0 0 0 0 0 0 0 0 0
-40 -33 -26 -54 -31 -15 -7 -11 -18 -33 0 -55 -61 0 0 0 0 0 -112 -21 0 0 0 0 0 0 0 0 0 0 0 0 0
-83 -91 -43 -32 -26 -21 -9 -7 -6 -23 0 0 0 0 0 0 0 0 -124 -123 -4 -3 0 0 0 0 0 0 0 0 0 0 0
-31 -47 -32 -43 -28 -25 -8 -2 -7 -30 -7 0 0 0 0 0 0 0 0 -84 -25 -56 -97 0 0 0 0 0 0 0 0 0 0
-13 -16 -57 -20 -15 -16 -10 -2 -4 -20 -17 -1 -7 -3 0 0 0 0 0 -3 -78 -19 -16 -21 -14 0 0 0 0 0 0 0 0
-20 -13 -52 -29 -17 -6 -6 -13 -7 -21 -14 -2 0 -1 -8 0 0 0 0 0 -9 -38 -38 -3 0 -14 -39 -90 -78 0 0 0 0
-10 -34 -45 -34 -43 -18 -15 -6 -6 -17 -8 0 -1 -2 -2 0 0 0 0 0 0 0 -9 -1 -18 0 0 -1 -5 0 0 -1 -4
-54 -42 -25 -15 -19 -20 -18 -9 -6 -2 -10 0 0 -8 -1 0 -10 0 0 0 0 0 -105 -78 -41 -14 -8 0 0 0 0 0 0
-45 -29 -30 -32 -16 -13 -35 -20 -16 -34 -19 -18 -13 -14 -2 -4 -18 -8 0 0 0 0 0 0 -32 -94 -18 -17 -3 0 0 0 -1
-89 -32 -47 -48 -71 -25 -65 -18 -37 -23 -11 -12 -13 -8 0 -4 0 0 -1 0 0 0 0 0 0 0 -130 -43 -34 -5 0 -1 -1
-93 -84 -114 -7 -3 -1 -86 -43 -3 -3 -5 -2 -3 -9 -19 0 -6 -14 0 0 -13 0 0 0 0 0 0 -165 -76 -39 -13 0 0
-42 -71 -71 -87 -59 -36 -28 -39 -25 -11 -8 -1 0 -3 -11 -10 -16 -14 -28 -32 0 -3 -1 -10 0 0 0 -99 -231 -107 -41 -40 -2
-70 -38 -63 -54 -26 -11 -33 -56 -16 -19 -26 -5 -3 -1 -15 -12 -5 -47 -42 -52 -52 0 -8 -16 -22 0 0 0 -126 -259 -160 -71 -20
-32 -12 -6 -14 -30 -22 -25 -39 -32 -31 -9 -11 -13 -5 -13 -3 0 0 0 -1 -84 -111 -115 -8 0 0 0 -92 -130 -114 -98 -119 -71
0 -4 -7 -1 -2 -11 -16 -10 -10 -3 -23 -9 -23 -6 -5 -2 -2 0 0 0 0 0 -11 -4 -2 -8 -3 -127 -134 -129 -107 -140 -85
Wind_Speed
21 20 19 20 24 24 28 29 29 27 24 nan nan nan nan nan nan nan nan nan nan nan nan nan nan nan nan nan nan nan nan nan nan
17 20 20 19 20 25 32 31 29 27 26 nan nan nan nan nan nan nan nan nan nan nan nan nan nan nan nan nan nan nan nan nan nan
18 18 18 20 21 19 27 33 31 nan nan nan nan nan nan nan nan nan nan nan nan nan nan nan nan nan nan nan nan nan nan nan nan
24 22 21 19 20 21 25 30 32 nan 25 26 nan nan nan nan nan nan nan nan nan nan nan nan nan nan nan nan nan nan nan nan nan
27 26 25 25 23 25 28 29 33 31 30 29 nan nan nan nan nan nan nan nan nan nan nan nan nan nan nan nan nan nan nan nan nan
33 34 31 29 29 28 29 30 34 33 nan 34 nan nan nan nan nan nan nan nan nan nan nan nan nan nan nan nan nan nan nan nan nan
38 38 37 37 34 32 30 32 36 nan nan nan nan nan nan nan nan nan 35 nan nan nan nan nan nan nan nan nan nan nan nan nan nan
nan nan 46 46 44 41 37 35 nan nan nan nan nan nan nan nan nan nan nan nan nan nan nan nan nan nan nan nan nan nan nan nan nan
47 48 48 49 49 47 43 39 36 nan nan nan nan nan nan nan nan nan nan 37 nan nan nan nan nan nan nan nan nan nan nan nan nan
47 nan 48 48 49 48 45 43 38 35 nan nan nan nan nan nan nan nan nan nan 37 nan 27 29 nan nan nan nan nan nan nan nan nan
49 48 49 48 47 47 44 43 40 39 nan nan nan nan nan nan nan nan nan nan nan nan nan 28 28 29 28 nan nan nan nan nan nan
49 49 47 48 45 41 41 39 39 42 nan nan nan nan nan nan nan nan nan nan nan nan nan nan nan 27 26 26 26 26 28 29 29
nan 52 51 48 46 46 42 41 40 41 45 nan nan nan nan nan nan nan nan nan nan nan nan nan 31 30 29 26 24 26 27 28 29
nan 58 56 53 45 48 nan 37 45 42 36 nan nan nan nan nan nan nan nan nan nan nan nan nan nan nan 31 29 28 27 30 31 32
nan nan nan nan nan nan nan nan nan 45 45 43 44 nan nan nan nan nan nan nan nan nan nan nan nan nan nan 32 29 27 31 33 36
62 62 nan nan nan nan nan nan 45 44 46 46 46 nan nan nan nan nan nan nan nan nan nan nan nan nan nan nan 35 28 27 32 39
65 69 66 65 58 58 54 nan 44 38 51 50 50 nan nan nan nan nan nan nan nan nan nan nan nan nan nan nan nan 31 29 35 33
60 66 69 67 62 61 60 60 60 nan 54 58 55 nan nan nan nan nan nan nan nan nan nan nan nan nan nan nan nan nan 34 36 35
50 33 52 64 66 60 60 63 52 56 45 54 44 nan nan nan nan nan nan nan nan nan nan nan nan nan nan nan nan nan nan 38 38
66 82 61 65 66 64 60 54 54 54 57 40 48 35 36 37 nan nan nan nan nan nan nan nan nan nan nan nan nan nan nan 40 40
Wind_Direction
291 290 286 273 268 275 277 273 275 276 279 nan nan nan nan nan nan nan nan nan nan nan nan nan nan nan nan nan nan nan nan nan nan
286 290 293 284 281 282 287 283 277 276 275 nan nan nan nan nan nan nan nan nan nan nan nan nan nan nan nan nan nan nan nan nan nan
279 284 283 285 278 281 288 284 285 nan nan nan nan nan nan nan nan nan nan nan nan nan nan nan nan nan nan nan nan nan nan nan nan
275 278 282 281 282 278 283 287 284 nan 277 276 nan nan nan nan nan nan nan nan nan nan nan nan nan nan nan nan nan nan nan nan nan
267 272 276 282 281 284 288 289 287 282 274 273 nan nan nan nan nan nan nan nan nan nan nan nan nan nan nan nan nan nan nan nan nan
272 273 277 284 284 283 286 288 286 283 nan 276 nan nan nan nan nan nan nan nan nan nan nan nan nan nan nan nan nan nan nan nan nan
265 273 280 278 280 279 284 286 283 nan nan nan nan nan nan nan nan nan 286 nan nan nan nan nan nan nan nan nan nan nan nan nan nan
nan nan 267 267 272 267 271 273 nan nan nan nan nan nan nan nan nan nan nan nan nan nan nan nan nan nan nan nan nan nan nan nan nan
263 262 267 268 268 270 270 270 273 nan nan nan nan nan nan nan nan nan nan 285 nan nan nan nan nan nan nan nan nan nan nan nan nan
263 nan 260 267 268 268 270 272 273 274 nan nan nan nan nan nan nan nan nan nan 285 nan 290 294 nan nan nan nan nan nan nan nan nan
268 263 259 262 266 266 269 270 269 268 nan nan nan nan nan nan nan nan nan nan nan nan nan 290 294 298 296 nan nan nan nan nan nan
264 269 266 263 263 265 266 270 267 267 nan nan nan nan nan nan nan nan nan nan nan nan nan nan nan 290 295 300 296 293 294 296 296
nan 261 264 264 258 259 261 267 265 268 264 nan nan nan nan nan nan nan nan nan nan nan nan nan 290 288 290 290 293 293 290 293 295
nan 260 258 259 254 247 nan 256 265 262 263 nan nan nan nan nan nan nan nan nan nan nan nan nan nan nan 286 286 288 288 289 294 297
nan nan nan nan nan nan nan nan nan 258 256 255 255 nan nan nan nan nan nan nan nan nan nan nan nan nan nan 288 290 290 288 289 292
253 250 nan nan nan nan nan nan 247 246 248 249 251 nan nan nan nan nan nan nan nan nan nan nan nan nan nan nan 294 292 292 294 292
252 254 253 251 252 253 255 nan 254 257 265 251 258 nan nan nan nan nan nan nan nan nan nan nan nan nan nan nan nan 284 287 300 299
263 259 251 250 248 250 249 255 260 nan 269 256 258 nan nan nan nan nan nan nan nan nan nan nan nan nan nan nan nan nan 285 300 301
249 253 251 247 249 249 250 248 256 251 250 253 253 nan nan nan nan nan nan nan nan nan nan nan nan nan nan nan nan nan nan 293 300
258 251 249 251 250 248 245 248 249 249 244 241 256 255 267 263 nan nan nan nan nan nan nan nan nan nan nan nan nan nan nan 291 294